Location: Ku?niki
(51.4449°N, 17.8974°E)
Time: 10:58:53
(UTC+00:00)

DX 1 - Pass Details

Date: 29 June 2022
Orbit: 617 x 629 km, 98.4° (Epoch: 08 August)

Event Time Altitude Azimuth Distance (km) Brightness Sun altitude
Rises 21:57:41 0° 1° (N) 2,935 ? -14.4°
Reaches altitude 10° 22:00:59 10° 334° (NNW) 2,021 ? -14.5°
Maximum altitude 22:02:59 13° 307° (NW) 1,817 ? -14.6°
Drops below altitude 10° 22:05:00 10° 279° (W) 2,013 ? -14.7°
Sets 22:08:16 0° 252° (WSW) 2,913 ? -14.7°
